Regional Weather Roundup
Issued by NWS

Home | Current Version | Previous Version | Text Only | Print | Product List | Glossary On
Versions: 1 2 3 4 5 6 7 8 9 10 11 12 13 14 15 16 17 18 19 20 21 22 23 24 25 26 27 28 29 30 31 32 33 34 35 36 37 38 39 40 41 42 43 44 45 46 47 48 49 50
000
ASUS44 KJAN 291820
RWRMS

MISSISSIPPI HOURLY WEATHER ROUNDUP
NATIONAL WEATHER SERVICE JACKSON MS
100 PM CDT MON AUG 29 2016

NOTE: "FAIR: INDICATES FEW OR NO CLOUDS BELOW 12,000 FEET WITH NO
SIGNIFICANT WEATHER AND/OR OBSTRUCTIONS TO VISIBILITY.

MSZ001>002-007>008-010>013-018>021-025>028-034>036-291900-
NORTHWEST MISSISSIPPI

CITY           SKY/WX    TMP DP  RH WIND       PRES   REMARKS
CLARKSDALE     MOSUNNY   90  77  66 N6        30.07F HX 102
GREENWOOD      MOSUNNY   93  70  46 NE8       30.05F HX  99
6HR MIN TEMP:  73; 6HR MAX TEMP:  95;

GREENVILLE     SUNNY     95  71  45 NE6       30.05F HX 102
6HR MIN TEMP:  73; 6HR MAX TEMP:  95;

OLIVE BRANCH   MOSUNNY  N/A N/A N/A VRB6      30.10F
OXFORD         FAIR      93  68  43 NE10      30.10F HX  97
TUNICA         CLEAR     90  73  58 NE6       30.09S HX  98
$$

MSZ003>006-009-014>017-022>024-029>033-037>039-291900-
NORTHEAST MISSISSIPPI

CITY           SKY/WX    TMP DP  RH WIND       PRES   REMARKS
COLUMBUS AFB   SUNNY     92  77  61 E7        30.06F HX 107
6HR MIN TEMP:  74; 6HR MAX TEMP:  92;

CORINTH        FAIR      91  70  49 E7        30.10F HX  97
GOLDN TRIANGLE SUNNY     91  70  49 E7        30.07  HX  97
TUPELO         SUNNY     92  70  48 N9        30.09F HX  97
6HR MIN TEMP:  74; 6HR MAX TEMP:  92;

$$

MSZ040-058-291900-
CENTRAL MISSISSIPPI

CITY           SKY/WX    TMP DP  RH WIND       PRES   REMARKS
JACKSON INTL   PTSUNNY   93  70  46 NE7       30.04F HX  99
6HR MIN TEMP:  74; 6HR MAX TEMP:  95;

JACKSON HAWKNS PTSUNNY   93  72  50 E6        30.04F HX 101
6HR MIN TEMP:  74; 6HR MAX TEMP:  93;

MERIDIAN KEY   PTSUNNY   94  70  45 E6        30.05F HX 100
6HR MIN TEMP:  74; 6HR MAX TEMP:  95;

MERIDIAN NAS   MOSUNNY   95  66  38 NE9       30.06F HX  98
6HR MIN TEMP:  73; 6HR MAX TEMP:  95;

$$

MSZ059>079-291900-
SOUTH MISSISSIPPI

CITY           SKY/WX    TMP DP  RH WIND       PRES   REMARKS
BROOKHAVEN     FAIR     N/A N/A N/A E9        30.05F
HATTIESBURG    MOSUNNY   93  70  46 E10       30.03S HX  99
6HR MIN TEMP:  74; 6HR MAX TEMP:  93;

MCCOMB         MOSUNNY   91  71  51 E8        30.04R HX  97
6HR MIN TEMP:  76; 6HR MAX TEMP:  91;

NATCHEZ        MOSUNNY   91  73  55 E8        30.03S HX 100
PINE BELT      MOSUNNY   91  70  49 E12       30.05S HX  97
$$

MSZ080>082-291900-
COASTAL MISSISSIPPI

CITY           SKY/WX    TMP DP  RH WIND       PRES   REMARKS
BAY ST LOUIS   MOSUNNY   90  72  55 SE7       30.00F HX  96
BILOXI         MOSUNNY   91  75  59 SE10      30.00S HX 102
6HR MIN TEMP:  75; 6HR MAX TEMP:  92;

PASCAGOULA     SUNNY     91  74  57 NE10G16   30.00F HX 100
6HR MIN TEMP:  74; 6HR MAX TEMP:  91;

GULFPORT       PTSUNNY   90  79  70 SE10      30.00S HX 106
6HR MIN TEMP:  75; 6HR MAX TEMP:  90;

$$

LAZ007>009-015>016-023>026-291900-
NORTHEAST LOUISIANA

CITY           SKY/WX    TMP DP  RH WIND       PRES   REMARKS
BASTROP        MOCLDY    91  72  53 E8        30.05S HX  98
TALLULAH/VBURG MOSUNNY   95  72  47 E8        30.03S HX 103
6HR MIN TEMP:  77; 6HR MAX TEMP:  95;

$$



USA.gov is the U.S. government's official web portal to all federal, state and local government web resources and services.